SL-16 DEB

Satellite information

Favourite Embed

Satellite Type and Status

DEBRISIN ORBIT

Key statistics

Satellite SL-16 DEB at a glance.

Uptime

11900

Days in orbit

Revolutions

≈ 14.5

Per day

Orbit

LEO

Low Earth Orbit

Inclination

71.1

Latest

Satellite identification and parameters

Extended collection of information and parameters for SL-16 DEB.

Object identification

Identified? True

Debris? True

Object name: SL-16 DEB

International designator: 1993-016F

Object number (NORAD): 22578

Object ID (CCSDS): 22578

Country: COMMONWEALTH OF INDEPENDENT STATES (CIS)

Current information (Y/N): Y

RCS size: MEDIUM

Orbital parameters

Period: 99.118 minutes

Inclination: 71.0628 deg

SMA: 7094.605 km

Apoapsis: 794.608 km

Periapsis: 638.333 km

RAAN: 312.795 deg

Eccentricy: 0.0110137

Argument of periapsis: 251.0292 deg

Mean anomaly: 266.1151 deg

Mean motion: 14.5281524 rev/day

Mean motion (dot): 0.00001166 rev/day2

B* drag term: 0.00027527 1/REarth

Two-line elements (TLE)

Creation date: Oct. 23, 2025, 10:16 p.m.

Reference frame: TEME

Reference center: EARTH

Epoch: Oct. 23, 2025, 11:31 a.m. UTC

TLE line 0: 0 SL-16 DEB

TLE line 1: 1 22578U 93016F 25296.48045081 .00001166 00000-0 27527-3 0 9997

TLE line 2: 2 22578 71.0628 312.7950 0110137 251.0292 266.1151 14.52815240720925

Live tracking on map

Real-time ground track for satellite SL-16 DEB.

In-orbit conjunctions

A list of the most updated potential collisions computed for object SL-16 DEB.

Target Orbit TCA Probability of collision Miss distance Type
COSMOS 468 LEO 2025-04-14 16:28:31 0.0002966218 944.0 (m) PAYLOAD
FENGYUN 1C DEB SSO 2024-11-13 13:27:20 0.0001005703 730.0 (m) DEBRIS

Associated space launch

Second generation ELING satellite

SL-16 DEB was lifted into orbit during the mission ‘Zenit-2 | Tselina-2 13’, on board a Zenit-2 space rocket.

The launch took place on March 26, 1993, 2:21 a.m. from 45/1.

For more information about the launch, click the button.

Launch to space Zenit-2 | Tselina-2 13
Zenit-2 | Tselina-2 13

Agency: N/A

Status: Launch Successful

Launch date: March 26, 1993, 2:21 a.m. UTC

Rocket: Zenit-2

Launch pad: 45/1

Location: Baikonur Cosmodrome, Republic of Kazakhstan

...

Latest news about this satellite

There are no fresh news available about this satellite. Check back as we update our databases every day.


Newsletter sign-up

Weekly statistics, charts and insights to help you stay on top of the space industry.